Find Starlink 31083

NORAD ID: 58670 Int'l Des: 2023-211 Owner: SPXS Country: US Constellation: starlink operational
LEOCIRCULAR

現在のビュー

3D地球を読み込み中...

About Starlink 31083

Starlink 31083 (NORAD 58670) is a starlink constellation satellite (v2 mini) launched Dec 29, 2023 by SPXS of US. It operates in LEO, CIRCULAR orbit with a mass of 730.00 kg.

Starlink 31083について

説明を読み込み中...

次回通過

Passes for default location (London). Set your location on the main map for personalized predictions.

高度履歴

Loading altitude history...

軌道要素

1 58670U 23211D 26177.72117866 -.00001359 00000-0 -39874-4 0 9991
2 58670 42.9988 189.1756 0001456 273.3740 86.6945 15.27585431139144
Epoch: Jun 26, 2026 • Age: 12 hours

現在のステータス

高度 487.2 km
速度 7.62 km/s
衛星直下点 -20.55°S, 36.44°E
打ち上げ日 Dec 29, 2023
運用期間 2.4 years
タイプ internet

技術仕様

分類 Payload
質量 730.00 kg
乾燥質量 700.00 kg
総質量 730.00 kg
長さ 0.30 m
直径 4.10 m
スパン 29.00 m
形状 Box + pan
製造者 SPXS
バスタイプ Starlink V2M
フェーズステータス In Orbit
所有者/国 SPXS/US

Most Searched